Weather History for KIWI - July, 2013

Change the Weather History Date:

Saturday, July 6, 2013

  Actual Average Record
Temperature  
Mean Temperature 80 °F -  
Max Temperature 89 °F 74 °F 95 °F (2010)
Min Temperature 70 °F 54 °F 46 °F (1997)
Cooling Degree Days 14    
Growing Degree Days 30 (Base 50)    
Moisture  
Dew Point 68 °F    
Average Humidity 71    
Maximum Humidity 97    
Minimum Humidity 48    
Precipitation  
Precipitation 0.00 in - - ()
Sea Level Pressure  
Sea Level Pressure 29.99 in    
Wind  
Wind Speed 1 mph (West)    
Max Wind Speed 9 mph    
Max Gust Speed 16 mph    
Visibility 8 miles    
Events      
Averages and records for this station are not official NWS values.
T = Trace of Precipitation, MM = Missing Value Source: NWS Daily Summary

Daily Weather History Graph

Daily Weather History Graph

Search for Another Location

Airport or City:

Trip Planner

Search our weather history database for the weather conditions in past years. The results will help you decide how hot, cold, wet, or windy it might be!

Date:

Astronomy

Jul. 06, 2013 Rise Set
Actual Time 5:03 AM EDT 8:23 PM EDT
Civil Twilight 4:27 AM EDT 8:59 PM EDT
Nautical Twilight 3:40 AM EDT 9:45 PM EDT
Astronomical Twilight 2:42 AM EDT 10:43 PM EDT
Moon 3:48 AM EDT (7/6) 7:00 PM EDT (7/6)
Length of Visible Light 16h 32m
Length of Day
15h 20m
Waning Crescent, 2% of the Moon is Illuminated
Jul 6
Waning Crescent
Jul 8
New
Jul 15
First Quarter
Jul 22
Full
Jul 29
Last Quarter

Hourly Weather History & Observations

Time (EDT) Temp. Heat Index Dew Point Humidity Pressure Visibility Wind Dir Wind Speed Gust Speed Precip Events Conditions
12:53 AM 72.0 °F - 70.0 °F 93% 30.03 in 7.0 mi Calm Calm - N/A   Clear
1:53 AM 71.1 °F - 69.1 °F 93% 30.01 in 7.0 mi Calm Calm - N/A   Clear
2:53 AM 71.1 °F - 69.1 °F 93% 30.02 in 6.0 mi Calm Calm - N/A   Clear
3:53 AM 70.0 °F - 68.0 °F 93% 30.01 in 6.0 mi Calm Calm - N/A   Scattered Clouds
4:53 AM 70.0 °F - 68.0 °F 93% 30.01 in 7.0 mi Calm Calm - N/A   Clear
5:53 AM 70.0 °F - 69.1 °F 97% 30.02 in 4.0 mi Calm Calm - N/A   Clear
6:53 AM 75.0 °F - 71.1 °F 87% 30.03 in 3.0 mi Calm Calm - N/A   Mostly Cloudy
7:00 AM 75.2 °F - 71.6 °F 89% 30.03 in 2.5 mi Calm Calm - N/A   Haze
7:08 AM 75.2 °F - 71.6 °F 89% 30.03 in 9.0 mi Calm Calm - N/A   Scattered Clouds
7:53 AM 79.0 °F - 72.0 °F 79% 30.02 in 10.0 mi Calm Calm - N/A   Clear
8:53 AM 84.0 °F 89.0 °F 71.1 °F 65% 30.02 in 10.0 mi Variable 4.6 mph - N/A   Clear
9:53 AM 84.9 °F 88.8 °F 69.1 °F 59% 30.01 in 10.0 mi Calm Calm - N/A   Clear
10:53 AM 87.1 °F 91.3 °F 69.1 °F 55% 30.00 in 10.0 mi Calm Calm - N/A   Clear
11:53 AM 88.0 °F 92.1 °F 69.1 °F 53% 29.99 in 10.0 mi Variable 3.5 mph - N/A   Scattered Clouds
12:53 PM 86.0 °F 90.1 °F 69.1 °F 57% 29.99 in 10.0 mi Calm Calm - N/A   Overcast
1:53 PM 88.0 °F 91.4 °F 68.0 °F 51% 29.98 in 10.0 mi Variable 4.6 mph - N/A   Scattered Clouds
2:53 PM 88.0 °F 90.7 °F 66.9 °F 49% 29.96 in 10.0 mi West 9.2 mph 16.1 mph N/A   Clear
3:53 PM 89.1 °F 92.9 °F 68.0 °F 50% 29.95 in 10.0 mi West 5.8 mph - N/A   Partly Cloudy
4:53 PM 89.1 °F 92.1 °F 66.9 °F 48% 29.93 in 10.0 mi WSW 4.6 mph - N/A   Partly Cloudy
5:53 PM 86.0 °F 90.7 °F 70.0 °F 59% 29.93 in 10.0 mi Calm Calm - N/A   Mostly Cloudy
6:53 PM 84.0 °F 89.0 °F 71.1 °F 65% 29.93 in 10.0 mi Calm Calm - N/A   Clear
7:53 PM 81.0 °F 84.4 °F 70.0 °F 69% 29.93 in 10.0 mi Calm Calm - N/A   Clear
8:53 PM 79.0 °F - 64.0 °F 60% 29.95 in 10.0 mi West 4.6 mph - N/A   Clear
9:53 PM 75.0 °F - 63.0 °F 66% 29.96 in 10.0 mi West 4.6 mph - N/A   Clear
10:53 PM 75.0 °F - 61.0 °F 62% 29.97 in 10.0 mi WNW 4.6 mph - N/A   Clear
11:53 PM 73.9 °F - 61.0 °F 64% 29.97 in 10.0 mi Calm Calm - N/A   Clear